Location: Unspecified
(48.5539°N, 71.6350°W)
Time: 14:33:50
(UTC-05:00)

ISS - Pass Details

Date: 25 January 2019
Orbit: 403 x 411 km, 51.6° (Epoch: 22 February)

Event Time Altitude Azimuth Distance (km) Brightness Sun altitude
Rises 18:38:14 0° 244° (WSW) 2,329 1.3 -20.4°
Reaches altitude 10° 18:40:19 10° 243° (WSW) 1,472 0.0 -20.8°
Enters shadow 18:43:11 64° 227° (SW) 459 -3.5 -21.2°
Maximum altitude 18:43:37 81° 157° (SSE) 421 - -21.3°
Drops below altitude 10° 18:46:57 10° 70° (ENE) 1,483 - -21.9°
Sets 18:49:02 0° 69° (ENE) 2,348 - -22.2°
